Regional Weather Roundup
Issued by NWS State College, PA

Home | Current Version | Previous Version | Text Only | Print | Product List | Glossary Off
Versions: 1 2 3 4 5 6 7 8 9 10 11 12 13 14 15 16 17 18 19 20 21 22 23 24 25 26 27 28 29 30 31 32 33 34 35 36 37 38 39 40 41 42 43 44 45 46 47 48 49 50

000
ASUS41 KCTP 260403
RWRCTP

REGIONAL WEATHER ROUNDUP
NATIONAL WEATHER SERVICE STATE COLLEGE PA
1200 AM EDT THU MAY 26 2016

Note: "fair" indicates few or no clouds below 12,000 feet with no
significant weather and/or obstructions to visibility.

* = STATION THAT DOES NOT REPORT PRECIPITATION /E.G. RAIN...SNOW...ETC/
    THUNDER OR FOG.

PAZ002>004-007>009-013>016-020>023-029>032-260500-
WESTERN PENNSYLVANIA

CITY           SKY/WX    TMP DP  RH WIND       PRES   REMARKS
ERIE           CLOUDY    69  54  58 S6        30.08S
MEADVILLE      CLOUDY    67  53  61 SW5       30.12S
FRANKLIN*      CLOUDY    66  48  52 SW3       30.15S
NEW CASTLE     CLOUDY    68  57  68 CALM      30.12F
BEAVER COUNTY  NOT AVBL
BUTLER*        MOCLDY    68  54  60 CALM      30.16S
PITTSBURGH INT CLOUDY    71  55  56 CALM      30.12F
PITTSBURGH     CLOUDY    72  53  51 S3        30.12F
INDIANA*       CLOUDY    63  54  72 CALM      30.17S
LATROBE        CLOUDY    64  57  77 CALM      30.15S
WASHINGTON CO* PTCLDY    63  57  82 CALM      30.14S
$$

PAZ004>006-010>012-017>019-024>028-033>037-041-042-045-046-049>053-260500-
CENTRAL PENNSYLVANIA

CITY           SKY/WX    TMP DP  RH WIND       PRES   REMARKS
BRADFORD       PTCLDY    57  47  69 CALM      30.16S
DUBOIS         PTCLDY    64  45  49 CALM      30.14F
CLEARFIELD     PTCLDY    60  49  66 CALM      30.15S
JOHNSTOWN      PTCLDY    68  42  38 SW6       30.17F
ALTOONA        CLEAR     62  51  67 CALM      30.15S
STATE COLLEGE  PTCLDY    65  50  59 S5        30.13S
WILLIAMSPORT   CLOUDY    63  53  70 CALM      30.09R
SELINSGROVE    CLOUDY    60  55  83 CALM      30.10R
FT INDIANTOWN  CLOUDY    60  56  87 E1        30.10S
CAPITAL CITY   CLOUDY    70  52  52 W7        30.10S
HARRISBURG     CLOUDY    73  53  49 NW3       30.08S
YORK           CLOUDY    61  54  77 CALM      30.11S
$$

PAZ038>040-043-044-047-048-054-055-060>062-067>071-260500-
EASTERN PENNSYLVANIA

CITY           SKY/WX    TMP DP  RH WIND       PRES   REMARKS
SCRANTON       CLOUDY    69  50  50 CALM      30.10R
MOUNT POCONO   CLOUDY    57  48  72 W5        30.14S
ALLENTOWN      CLOUDY    67  51  56 W3        30.09S
QUAKERTOWN*    CLOUDY    63  55  77 CALM      30.11S
READING        CLOUDY    65  54  67 CALM      30.09S
LANCASTER      CLOUDY    62  54  74 SE5       30.10S
COATESVILLE    CLOUDY    70  50  49 CALM      30.13S
POTTSTOWN      CLOUDY    65  53  65 CALM      30.11S
BLUE BELL      CLEAR     61  54  77 CALM      30.09S
DOYLESTOWN     CLEAR     67  49  52 SW5       30.09S
WILLOW GROVE   NOT AVBL
NORTH PHILA    CLEAR     73  54  51 SW5       30.10S
PHILADELPHIA   MOCLDY    72  54  53 SW5       30.10S
$$



USA.gov is the U.S. government's official web portal to all federal, state and local government web resources and services.